Satellite: HRBE Catalog number: 37855 Epoch time: 13072.48613459 Element set: 443 Inclination: 101.7183 deg RA of node: 242.3562 deg Eccentricity: 0.0239825 Arg of perigee: 300.7545 deg Mean anomaly: 090.3738 deg Mean motion: 14.82816875 rev/day Decay rate: 4.315e-05 rev/day^2 Epoch rev: 7426 Checksum: 310
Satellite: RS-39 Catalog number: 38051 Epoch time: 13073.23899513 Element set: 255 Inclination: 051.6381 deg RA of node: 307.8674 deg Eccentricity: 0.0011049 Arg of perigee: 280.3519 deg Mean anomaly: 183.1352 deg Mean motion: 15.29845245 rev/day Decay rate: 1.2650e-04 rev/day^2 Epoch rev: 6323 Checksum: 301
Satellite: E-STAR Catalog number: 38079 Epoch time: 13073.03407957 Element set: 967 Inclination: 069.4818 deg RA of node: 049.0829 deg Eccentricity: 0.0658481 Arg of perigee: 261.8680 deg Mean anomaly: 171.2485 deg Mean motion: 14.36257080 rev/day Decay rate: 4.1844e-04 rev/day^2 Epoch rev: 5603 Checksum: 336
Satellite: GOLIAT Catalog number: 38085 Epoch time: 13073.24998560 Element set: 894 Inclination: 069.4882 deg RA of node: 050.0855 deg Eccentricity: 0.0665259 Arg of perigee: 262.2625 deg Mean anomaly: 090.2510 deg Mean motion: 14.34634827 rev/day Decay rate: 3.5190e-04 rev/day^2 Epoch rev: 5602 Checksum: 317
Satellite: HORYU-2 Catalog number: 38340 Epoch time: 13073.88190891 Element set: 419 Inclination: 098.2085 deg RA of node: 020.7860 deg Eccentricity: 0.0012500 Arg of perigee: 187.1755 deg Mean anomaly: 172.9252 deg Mean motion: 14.70673334 rev/day Decay rate: 1.273e-05 rev/day^2 Epoch rev: 4425 Checksum: 292
Satellite: RS-40 Catalog number: 38736 Epoch time: 13073.33446085 Element set: 211 Inclination: 082.4768 deg RA of node: 214.2598 deg Eccentricity: 0.0020990 Arg of perigee: 166.3240 deg Mean anomaly: 193.8413 deg Mean motion: 12.43229797 rev/day Decay rate: 1.0e-07 rev/day^2 Epoch rev: 2846 Checksum: 297
Satellite: PROITERES Catalog number: 38756 Epoch time: 13073.29272037 Element set: 594 Inclination: 098.2609 deg RA of node: 148.5736 deg Eccentricity: 0.0013616 Arg of perigee: 052.4444 deg Mean anomaly: 307.8000 deg Mean motion: 14.74101682 rev/day Decay rate: 5.27e-06 rev/day^2 Epoch rev: 2741 Checksum: 290
Satellite: RAIKO Catalog number: 38852 Epoch time: 13072.50580640 Element set: 164 Inclination: 051.6414 deg RA of node: 217.1570 deg Eccentricity: 0.0014508 Arg of perigee: 358.6803 deg Mean anomaly: 001.4151 deg Mean motion: 15.63276120 rev/day Decay rate: 6.2666e-04 rev/day^2 Epoch rev: 2483 Checksum: 268
Satellite: FITSAT 1 Catalog number: 38853 Epoch time: 13072.83061546 Element set: 165 Inclination: 051.6428 deg RA of node: 214.0960 deg Eccentricity: 0.0011361 Arg of perigee: 007.6420 deg Mean anomaly: 352.4747 deg Mean motion: 15.66123243 rev/day Decay rate: 8.4226e-04 rev/day^2 Epoch rev: 2495 Checksum: 279
Satellite: TechEdSat Catalog number: 38854 Epoch time: 13072.84605457 Element set: 187 Inclination: 051.6385 deg RA of node: 210.4033 deg Eccentricity: 0.0010797 Arg of perigee: 359.2001 deg Mean anomaly: 000.8979 deg Mean motion: 15.74337161 rev/day Decay rate: 1.72213e-03 rev/day^2 Epoch rev: 2500 Checksum: 281
Satellite: F 1 Catalog number: 38855 Epoch time: 13072.81881882 Element set: 189 Inclination: 051.6379 deg RA of node: 210.9660 deg Eccentricity: 0.0010735 Arg of perigee: 359.9206 deg Mean anomaly: 000.1789 deg Mean motion: 15.73246956 rev/day Decay rate: 1.49904e-03 rev/day^2 Epoch rev: 2488 Checksum: 338
Satellite: WeWish Catalog number: 38856 Epoch time: 13069.98095549 Element set: 248 Inclination: 051.6166 deg RA of node: 215.0521 deg Eccentricity: 0.0008325 Arg of perigee: 316.0438 deg Mean anomaly: 044.8765 deg Mean motion: 16.41348316 rev/day Decay rate: 1.6701328e-01 rev/day^2 Epoch rev: 2458 Checksum: 318
/EX